| time (UTC) | temp C | wind direction | speed KPH | gust KPH | rain 1hr cm | rain 24hr cm | rain mn cm | humidity % | barometer mb |
| 20260504070116 | 20 | 351 | 1.6 | 3.2 | 0.00 | 0.03 | 0.00 | 75 | 1011.7 |
| 20260504060109 | 16 | 315 | 0.0 | 3.2 | 0.00 | 0.03 | 0.00 | 89 | 1011.5 |
| 20260504050138 | 16 | 315 | 0.0 | 3.2 | 0.00 | 0.03 | 0.00 | 87 | 1011.6 |
| 20260504045048 | 16 | 353 | 1.6 | 3.2 | 0.00 | 0.03 | 0.00 | 87 | 1011.6 |
| 20260504044036 | 16 | 338 | 0.0 | 3.2 | 0.00 | 0.03 | 0.00 | 86 | 1011.4 |
| 20260504043046 | 16 | 315 | 0.0 | 3.2 | 0.00 | 0.03 | 0.00 | 86 | 1011.6 |
| 20260504042115 | 16 | 348 | 1.6 | 3.2 | 0.00 | 0.03 | 0.00 | 85 | 1011.6 |
| 20260504041105 | 16 | 331 | 1.6 | 3.2 | 0.00 | 0.03 | 0.00 | 84 | 1011.8 |
| 20260504040055 | 16 | 315 | 0.0 | 3.2 | 0.00 | 0.03 | 0.00 | 84 | 1011.9 |
| 20260504035106 | 16 | 34 | 1.6 | 3.2 | 0.00 | 0.03 | 0.00 | 84 | 1012.0 |
| 20260504034055 | 16 | 0.0 | 1.6 | 0.00 | 0.03 | 0.00 | 84 | 1012.3 | |
| 20260504033025 | 16 | 0.0 | 1.6 | 0.00 | 0.03 | 0.00 | 84 | 1012.4 | |
| 20260504032116 | 16 | 0.0 | 1.6 | 0.00 | 0.03 | 0.00 | 84 | 1012.4 | |
| 20260504031104 | 16 | 315 | 0.0 | 3.2 | 0.00 | 0.03 | 0.00 | 84 | 1012.5 |
| 20260504030053 | 16 | 315 | 0.0 | 3.2 | 0.00 | 0.03 | 0.00 | 84 | 1012.5 |
| 20260504025103 | 16 | 225 | 0.0 | 3.2 | 0.00 | 0.03 | 0.00 | 85 | 1012.5 |
| 20260504024032 | 16 | 180 | 0.0 | 3.2 | 0.00 | 0.03 | 0.00 | 85 | 1012.4 |
| 20260504023022 | 16 | 0.0 | 1.6 | 0.00 | 0.03 | 0.00 | 85 | 1012.5 | |
| 20260504022110 | 16 | 0.0 | 0.0 | 0.00 | 0.03 | 0.00 | 85 | 1012.3 | |
| 20260504021116 | 16 | 315 | 0.0 | 3.2 | 0.00 | 0.03 | 0.00 | 86 | 1012.4 |
| 20260504020100 | 16 | 0.0 | 0.0 | 0.00 | 0.03 | 0.00 | 86 | 1012.4 | |
| 20260504015048 | 16 | 0.0 | 0.0 | 0.00 | 0.03 | 0.00 | 87 | 1012.3 | |
| 20260504014109 | 16 | 360 | 0.0 | 3.2 | 0.00 | 0.03 | 0.00 | 87 | 1012.4 |
| 20260504013048 | 16 | 0 | 0.0 | 3.2 | 0.00 | 0.03 | 0.00 | 87 | 1012.3 |
| 20260504012037 | 16 | 335 | 1.6 | 4.8 | 0.00 | 0.03 | 0.00 | 87 | 1012.5 |
| 20260504011025 | 16 | 0 | 1.6 | 3.2 | 0.00 | 0.03 | 0.00 | 86 | 1012.5 |
| 20260504010115 | 16 | 342 | 1.6 | 3.2 | 0.00 | 0.03 | 0.00 | 86 | 1012.5 |
| 20260504005103 | 17 | 307 | 1.6 | 3.2 | 0.00 | 0.03 | 0.00 | 86 | 1012.6 |
| 20260504004052 | 17 | 32 | 1.6 | 3.2 | 0.00 | 0.03 | 0.00 | 86 | 1012.6 |
| 20260504003041 | 17 | 0 | 0.0 | 3.2 | 0.00 | 0.03 | 0.00 | 86 | 1012.7 |
| 20260504002030 | 17 | 0 | 0.0 | 3.2 | 0.00 | 0.03 | 0.00 | 86 | 1012.8 |
| 20260504001118 | 17 | 45 | 0.0 | 3.2 | 0.00 | 0.03 | 0.00 | 87 | 1012.9 |
| 20260504000105 | 17 | 23 | 0.0 | 3.2 | 0.00 | 0.03 | 0.00 | 87 | 1013.1 |
| 20260503235050 | 17 | 0.0 | 1.6 | 0.00 | 0.03 | 0.00 | 88 | 1013.2 | |
| 20260503234032 | 17 | 0.0 | 0.0 | 0.00 | 0.03 | 0.00 | 88 | 1013.2 | |
| 20260503233115 | 17 | 0.0 | 1.6 | 0.00 | 0.03 | 0.00 | 88 | 1013.2 | |
| 20260503232105 | 17 | 0 | 0.0 | 3.2 | 0.00 | 0.03 | 0.00 | 88 | 1013.3 |
| 20260503231054 | 17 | 58 | 0.0 | 3.2 | 0.00 | 0.03 | 0.00 | 89 | 1013.3 |
| 20260503230044 | 17 | 0 | 0.0 | 3.2 | 0.00 | 0.03 | 0.00 | 89 | 1013.3 |
| 20260503225033 | 17 | 0.0 | 0.0 | 0.00 | 0.03 | 0.00 | 89 | 1013.2 | |
| 20260503224021 | 17 | 0.0 | 0.0 | 0.00 | 0.03 | 0.00 | 89 | 1013.2 | |
| 20260503223110 | 17 | 0.0 | 1.6 | 0.00 | 0.03 | 0.00 | 89 | 1013.3 | |
| 20260503222057 | 17 | 0.0 | 1.6 | 0.00 | 0.03 | 0.00 | 89 | 1013.4 | |
| 20260503221045 | 17 | 23 | 0.0 | 3.2 | 0.00 | 0.03 | 0.00 | 89 | 1013.5 |
| 20260503220035 | 17 | 315 | 0.0 | 3.2 | 0.00 | 0.03 | 0.00 | 89 | 1013.5 |
| 20260503215025 | 17 | 180 | 0.0 | 4.8 | 0.00 | 0.03 | 0.03 | 88 | 1013.7 |
| 20260503214115 | 17 | 225 | 0.0 | 3.2 | 0.00 | 0.03 | 0.03 | 88 | 1013.7 |
| 20260503213103 | 17 | 188 | 3.2 | 6.4 | 0.00 | 0.03 | 0.03 | 86 | 1013.7 |
| 20260503212052 | 17 | 0.0 | 1.6 | 0.00 | 0.03 | 0.03 | 85 | 1013.7 | |
| 20260503211039 | 17 | 43 | 3.2 | 6.4 | 0.00 | 0.03 | 0.03 | 81 | 1013.6 |
| 20260503210028 | 17 | 39 | 1.6 | 4.8 | 0.00 | 0.03 | 0.03 | 80 | 1013.5 |
| 20260503205017 | 17 | 342 | 1.6 | 3.2 | 0.00 | 0.03 | 0.03 | 81 | 1013.3 |
| 20260503204130 | 17 | 0 | 0.0 | 3.2 | 0.00 | 0.03 | 0.03 | 81 | 1013.3 |
| 20260503203055 | 17 | 23 | 1.6 | 3.2 | 0.00 | 0.03 | 0.03 | 81 | 1013.0 |
| 20260503202043 | 17 | 28 | 1.6 | 3.2 | 0.00 | 0.03 | 0.03 | 80 | 1012.9 |
| 20260503201033 | 17 | 313 | 3.2 | 6.4 | 0.00 | 0.03 | 0.03 | 80 | 1012.8 |
| 20260503200022 | 17 | 68 | 1.6 | 6.4 | 0.00 | 0.03 | 0.03 | 79 | 1012.8 |
| 20260503195151 | 17 | 353 | 1.6 | 3.2 | 0.00 | 0.03 | 0.03 | 78 | 1012.7 |
| 20260503194100 | 17 | 325 | 1.6 | 4.8 | 0.00 | 0.03 | 0.03 | 77 | 1012.6 |
| 20260503193048 | 17 | 353 | 1.6 | 4.8 | 0.00 | 0.03 | 0.03 | 76 | 1012.5 |
| 20260503192059 | 17 | 356 | 1.6 | 6.4 | 0.00 | 0.03 | 0.03 | 75 | 1012.5 |
| 20260503191049 | 17 | 350 | 1.6 | 4.8 | 0.00 | 0.03 | 0.03 | 74 | 1012.5 |
| 20260503190018 | 18 | 17 | 3.2 | 6.4 | 0.00 | 0.03 | 0.03 | 73 | 1012.3 |
| 20260503185108 | 18 | 331 | 3.2 | 4.8 | 0.00 | 0.03 | 0.03 | 71 | 1012.2 |
| 20260503184138 | 18 | 352 | 3.2 | 6.4 | 0.00 | 0.03 | 0.03 | 71 | 1012.4 |
| 20260503183047 | 18 | 348 | 4.8 | 6.4 | 0.00 | 0.03 | 0.03 | 71 | 1012.2 |
| 20260503182055 | 18 | 305 | 3.2 | 6.4 | 0.00 | 0.03 | 0.03 | 71 | 1012.3 |
| 20260503181020 | 18 | 46 | 4.8 | 11.3 | 0.00 | 0.03 | 0.03 | 71 | 1012.1 |
| 20260503180126 | 18 | 341 | 3.2 | 8.0 | 0.00 | 0.03 | 0.03 | 71 | 1012.1 |
| 20260503175054 | 18 | 352 | 3.2 | 6.4 | 0.00 | 0.03 | 0.03 | 71 | 1012.0 |
| 20260503174044 | 19 | 354 | 3.2 | 6.4 | 0.00 | 0.03 | 0.03 | 70 | 1012.0 |
| 20260503173051 | 19 | 349 | 3.2 | 6.4 | 0.00 | 0.03 | 0.03 | 70 | 1012.0 |
| 20260503172118 | 18 | 291 | 3.2 | 4.8 | 0.00 | 0.03 | 0.03 | 70 | 1012.0 |
| 20260503171106 | 18 | 45 | 3.2 | 6.4 | 0.00 | 0.03 | 0.03 | 70 | 1012.2 |
| 20260503170116 | 18 | 325 | 3.2 | 6.4 | 0.00 | 0.03 | 0.03 | 69 | 1011.9 |
| 20260503131055 | 22 | 287 | 4.8 | 6.4 | 0.00 | 0.03 | 0.03 | 58 | 1013.2 |
| 20260503110138 | 21 | 319 | 4.8 | 8.0 | 0.00 | 0.03 | 0.03 | 71 | 1014.5 |
| 20260503090107 | 16 | 295 | 1.6 | 4.8 | 0.03 | 0.03 | 0.03 | 97 | 1015.1 |
| 20260503081102 | 16 | 0.0 | 1.6 | 0.03 | 0.03 | 0.03 | 96 | 1015.0 |